User: anonymous   Login
Location: Unspecified
(48.2082°N, 0.0000°E)
Time: 22:33:20
(UTC+00:00)
Language:

Vanguard 2 Rocket - Orbit

View from above orbital plane
View from above orbital plane
View from above satellite
View from above satellite

Ground track
Ground track

The orbit data is extracted from the following two-line orbital elements,

1    12U 59001B   19176.20476316  .00000084  00000-0  46732-4 0  9999
2    12  32.8989 164.3740 1665762 352.4962   5.3321 11.44265116481506
Epoch (UTC): 25 June 2019 04:54:51
Eccentricity: 0.1665762
inclination: 32.8989°
perigee height: 555 km
apogee height: 3326 km
right ascension of ascending node: 164.3740°
argument of perigee: 352.4962°
revolutions per day: 11.44265116
mean anomaly at epoch: 5.3321°
orbit number at epoch: 48150

The dashed part of the orbit path shows where the satellite is in the earth's shadow,  

DLR